Other Public Products
Issued by NWS Grand Forks, ND

Home | Current Version | Previous Version | Graphics & Text | Print | Product List | Glossary On
Versions: 1 2 3 4 5 6 7 8 9 10 11 12 13 14 15 16 17 18 19 20 21 22 23 24 25 26 27 28 29 30 31 32 33 34 35 36 37 38 39 40 41 42 43 44 45 46 47 48 49 50
000
FPUS83 KFGF 290210
OPUFGF
PRAIRIE TO PINES WEATHER ROUNDUP
NATIONAL WEATHER SERVICE EASTERN NORTH DAKOTA/GRAND FORKS ND
800 PM CST WED JAN 28 2015

 **SATELLITE DATA USED TO AUGMENT SKY COVER AT AUTOMATED STATIONS**
 *****  WEATHER ACROSS EASTERN NORTH DAKOTA  *****

CITY           SKY/WX    TMP DP  RH WIND       PRES   REMARKS
GRAND FORKS    CLOUDY    28  25  86 NW23G31   29.98R WCI  14
GRAND FORKS AF CLOUDY    28  26  90 NW16      29.99R WCI  16
GRAND CITY NWS   N/A     28 N/A N/A N18         N/A  WCI  16
BUXTON         NOT AVBL
DEVILS LAKE    MOCLDY    25  19  80 NW25G31   30.03R WCI   9
FARGO          CLOUDY    33  30  88 N24G31    29.93R WCI  20
WAHPETON ARPT  CLOUDY    32  32 100 N18G25    29.91R WCI  20
$$

 *****  WEATHER ACROSS CENTRAL AND WESTERN NORTH DAKOTA  *****

CITY           SKY/WX    TMP DP  RH WIND       PRES   REMARKS
JAMESTOWN      CLOUDY    30  27  88 NW24G31   30.00R WCI  16
BISMARCK       CLOUDY    32  27  81 NW20G33   30.13R WCI  20
MINOT          CLOUDY    29  25  85 NW23G31   30.13R WCI  15
MINOT AFB      CLOUDY    29  29  99 NW22      30.13R WCI  15
GARRISON         N/A     31  28  89 NW24G37   30.13R WCI  17
WILLISTON      CLOUDY    34  29  82 NW13      30.23R WCI  25
DICKINSON      CLOUDY    32  28  85 NW32G40   30.17R WCI  17
HETTINGER      CLOUDY    33  28  81 NW22G32   30.18R WCI  21
$$

 *****  OTHER OBSERVATIONS NORTHEAST NORTH DAKOTA  *****

CITY           SKY/WX    TMP DP  RH WIND       PRES   REMARKS
WALHALLA         N/A     21  21 100 NW21G32   30.05R WCI   6
LANGDON        CLOUDY    19  18  93 N23G29    30.02R WCI   2
CAVALIER       CLOUDY    23  19  86 NW21G32   30.03R WCI   8
GRAFTON        NOT AVBL
CANDO          CLOUDY    23  19  86 NW17G24   30.07R WCI   9
FORT TOTTEN      N/A     26  25  97 NW8       29.95S WCI  18
ROLLA          CLOUDY    21  21 100 NW22G31   30.06R WCI   5
RUGBY          CLOUDY    25  23  93 NW23      30.09R WCI  10
 ***** THE ABOVE OBSERVATIONS ARE NON NWS ARE NOT QUALITY
        CONTROLLED AND MAY MIS-REPORT RAIN FOR SNOW...
$$

 *****  OTHER OBSERVATIONS SOUTHEAST NORTH DAKOTA *****

CITY           SKY/WX    TMP DP  RH WIND       PRES   REMARKS
COOPERSTOWN    NOT AVBL
VALLEY CITY    FLURRIES  28  28 100 N23G30    29.98R WCI  14
OAKES            N/A     32  32 100 NW28G35   29.97R WCI  18
GWINNER        CLOUDY    34  34 100 NW20G33   29.96R WCI  22
SHEYENNE NWR     N/A     33  31  94 N14       29.95S WCI  23
BUFFALO        NOT AVBL
WYNDMERE         N/A     34  34 100 N17         N/A  WCI  23
 ***** THE ABOVE OBSERVATIONS ARE NON NWS ARE NOT QUALITY
       CONTROLLED AND MAY MIS-REPORT RAIN FOR SNOW...
$$

  *****  WEATHER ACROSS NORTHERN MINNESOTA  *****

CITY           SKY/WX    TMP DP  RH WIND       PRES   REMARKS
FLAG ISLAND    CLOUDY    28  28 100 NW10      29.86R WCI  19
WARROAD        CLOUDY    32  28  86 NW13      29.88R WCI  22
ROSEAU         CLOUDY    32  28  86 NW16      29.89R WCI  21
HALLOCK        CLOUDY    23  21  93 NW24G30   29.98R WCI   7
THF RVR FALLS  CLOUDY    30  30 100 NW20      29.90R WCI  18
HALSTAD          N/A     31  28  90 N23         N/A  WCI  18
FOSSTON        MIX PCPN  30  30 100 NW13      29.87R WCI  20
BAUDETTE       FLURRIES  31  29  92 NW15      29.83R WCI  20
WASKISH        CLOUDY    32  30  93 CALM      29.83R FOG
CROOKSTON      CLOUDY    28  28 100 N22       29.95R FOG     WCI  15
$$
  *****  WEATHER ACROSS CENTRAL AND WEST MINNESOTA  *****

CITY           SKY/WX    TMP DP  RH WIND       PRES   REMARKS
BEMIDJI        LGT RAIN  32  32  99 NW8       29.82S WCI  25
PARK RAPIDS    CLOUDY    32  31  96 W5        29.82R FOG
WADENA         FOG       30  30 100 CALM      29.84R VSB 3/4
DETROIT LAKES  CLOUDY    32  32 100 NW15      29.87R FOG     WCI  22
MOORHEAD       CLOUDY    34  34 100 N22       29.92R WCI  22
FERGUS FALLS   CLOUDY    32  32 100 N16G23    29.90R FOG     WCI  21
ELBOW LAKE     FOG       31  31 100 NW5       29.86R VSB 1/4
MORRIS MN      FOG       32  32 100 NW6       29.85R VSB<1/4
STAPLES        FOG       28  28 100 CALM      29.84R VSB 3/4
WHEATON        CLOUDY    30  30 100 NW16G22   29.91R FOG     WCI  19
$$
  *****  WEATHER ELSEWHERE ACROSS MINNESOTA  *****

CITY           SKY/WX    TMP DP  RH WIND       PRES   REMARKS
DULUTH         CLOUDY    29  23  78 SW6       29.82S WCI  23
INTRNTL FALLS  CLOUDY    27  25  92 SW3       29.81S FOG
ELY            CLOUDY    25  25 100 CALM      29.81S FOG
CLOQUET        CLOUDY    28  25  86 SW6       29.83S FOG     WCI  22
BRAINERD       FOG       28  28 100 CALM      29.84S VSB 3/4
HIBBING        CLOUDY    28  25  88 SW3       29.82S FOG
ALEXANDRIA     FOG       31  30  96 NW6       29.84R VSB 1/2
SAINT CLOUD    CLOUDY    29  28  96 NE3       29.84R FOG
MINNEAPOLIS    FRZ DRZL  30  28  92 VRB3      29.83R FOG
$$

  *****  WEATHER ACROSS SOUTH DAKOTA  *****

CITY           SKY/WX    TMP DP  RH WIND       PRES   REMARKS
SIOUX FALLS    CLOUDY    36  33  89 NW7       29.83R
BROOKINGS      NOT AVBL
WATERTOWN      CLOUDY    32  31  96 N26G32    29.87R FOG     WCI  18
HURON          CLOUDY    34  31  88 N25G32    29.96R WCI  21
SISSETON         N/A     33  33 100 N18G29    29.89R WCI  22
ABERDEEN       CLOUDY    34  30  85 N22G33    30.00R WCI  22
MITCHELL       CLOUDY    38  34  85 N29G47    29.94R
PIERRE         CLOUDY    36  29  75 NW25G37   30.08R
MOBRIDGE       CLOUDY    35  28  75 NW31G38   30.06R WCI  22
RAPID CITY     PTCLDY    35  29  78 N35G45    30.17R WCI  21
$$

  *****  SOME WEATHER IN NEARBY STATES *****

CITY           SKY/WX    TMP DP  RH WIND       PRES   REMARKS
GLASGOW MT     PTCLDY    34  27  75 NW14      30.31R WCI  25
GREAT FALLS MT CLOUDY    35  31  85 E3        30.34R
CHEYENNE WY    CLOUDY    39  30  70 N9        30.23R
SCOTTSBLUFF NE CLEAR     37  33  85 NW9       30.17R
OMAHA NE       CLEAR     48  36  63 NW15      29.75R
DES MOINES IA  CLEAR     44  35  70 E8        29.67F
DAVENPORT IA   CLOUDY    36  29  75 SE13G23   29.80F
CHICAGO IL     CLOUDY    32  20  61 S17       29.91F WCI  21
EAU CLAIRE WI  CLOUDY    29  23  78 E6        29.82F WCI  23
LA CROSSE WI   CLOUDY    34  24  67 SE6       29.82F
$$

  *****  SOME NATIONAL WEATHER *****

CITY           SKY/WX    TMP DP  RH WIND       PRES   REMARKS
LA GUARDIA NY  CLEAR     29   4  34 N9        30.24R WCI  20
RALEIGH NC     PTCLDY    29  14  53 CALM      30.31R
ATLANTA GA     PTCLDY    46  23  40 S3        30.27R
NEW ORLEANS LA PTCLDY    54  42  64 SE7       30.24F
OKLAHOMA CITY  PTCLDY    62  44  51 W6        29.93R
ALBUQUERQUE NM MOCLDY    53  30  41 NW9       30.22R
SALT LAKE CITY MOCLDY    41  36  82 N7        30.32R
LOS ANGELES CA CLOUDY    64  52  64 CALM      30.07S
BOISE ID       CLEAR     40  35  83 CALM      30.35R
SEATTLE WA     PTCLDY    46  40  79 N7        30.37S
$$

*** WEATHER ACROSS MANITOBA...SASKATCHEWAN AND ONTARIO ***
                ***ONTARIO***

CITY           SKY/WX    TMP DP  RH WIND       PRES   REMARKS
GERALDTON      LGT SNOW  25  23  93 SE9       29.85  VSB 5/8 WCI  15
THUNDER BAY    CLOUDY    28  27  93 NE2       29.83F
SIOUX LOOKOUT  SNOWSHWR  27  25  93 NW3       29.78F
TORONTO        PTCLDY    21   5  49 S6        30.27F WCI  14
BIG TROUT LK   CLOUDY    -6 -13  71 N3        30.15S
PICKLE LAKE    SNOW      10   7  85 NE12G22   29.90R VSB 1/2 WCI  -4
DRYDEN         CLOUDY    27  27 100 W6        29.80S FOG     WCI  20
KENORA         FLURRIES  27  25  93 N8        29.84R WCI  18
$$
                *** MANITOBA***

CITY           SKY/WX    TMP DP  RH WIND       PRES   REMARKS
BRANDON        MOCLDY    23  18  80 NW12      30.11R WCI  12
DAUPHIN        CLOUDY    12   9  85 NE7       30.18R WCI   2
ISLAND LAKE    CLOUDY    -2  -9  71 NE10G18   30.16S WCI -19
PILOT MOUND      N/A     19  18  93 N10         N/A  WCI   8
THE PAS        FLURRIES   1  -4  78 NW10      30.28R WCI -14
THOMPSON       LGT SNOW  -8 -13  77 VRB2      30.26F
WINNIPEG       CLOUDY    21  16  79 NW26      30.04R WCI   4
LYNN LAKE      FLURRIES  -8 -11  84 NW5       30.26S WCI -19
CHURCHILL      CRYSTALS -17 -26  63 W12       30.29F WCI -38
GILLAM         FLURRIES -13 -20  70 N5        30.27F WCI -25
$$
                ***SASKATCHEWAN***

CITY           SKY/WX    TMP DP  RH WIND       PRES   REMARKS
ESTEVAN        FLURRIES  30  28  93 NW14G22   30.18R WCI  20
KINDERSLEY     PTCLDY    18  16  93 NW7       30.34R WCI   8
LLOYDMINSTER   PTCLDY     9   3  78 NW10      30.36R WCI  -6
PRINCE ALBERT  FLURRIES  10   5  79 NW10      30.34R WCI  -3
REGINA         CLOUDY    25  23  93 N16       30.25R WCI  12



USA.gov is the U.S. government's official web portal to all federal, state and local government web resources and services.